When you browse on this site, cookies collect data to enhance your experience and personalize the content and advertising you see.
Visit our Privacy Policy to learn more. By continuing to use the site, you agree to this use of cookies and data.
  • In Spain
  • List of Countries
  • For 7 days
  • Water Temperature
  • Weather Map
  • Weather Widgets
  • user-avatar
    Login

    Hourly Weather Gonchary

    Today, 7 June, Sunday

    Time Temperature Precipitation Wind Pressure Humidity
    00:00 +15°C° 0 mm 1 mps 741 mmHg 93%
    01:00 +14°C° 0 mm 1 mps 741 mmHg 93%
    02:00 +14°C° 0 mm 1 mps 742 mmHg 93%
    03:00 +14°C° 0 mm 1 mps 742 mmHg 92%
    04:00 +14°C° 0 mm 1 mps 742 mmHg 91%
    05:00 +14°C° 0 mm 0 mps 743 mmHg 91%
    06:00 +15°C° 0 mm 0 mps 743 mmHg 87%
    07:00 +19°C° 0 mm 1 mps 743 mmHg 82%
    08:00 +21°C° 0 mm 1 mps 743 mmHg 78%
    09:00 +22°C° 0 mm 1 mps 744 mmHg 73%
    10:00 +23°C° 0 mm 1 mps 744 mmHg 67%
    11:00 +25°C° 0 mm 2 mps 744 mmHg 62%
    12:00 +25°C° 0 mm 2 mps 744 mmHg 61%
    13:00 +25°C° 0 mm 2 mps 744 mmHg 59%
    14:00 +26°C° 0 mm 2 mps 744 mmHg 58%
    15:00 +25°C° 0 mm 2 mps 744 mmHg 62%
    16:00 +25°C° 0 mm 2 mps 743 mmHg 66%
    17:00 +25°C° 0 mm 2 mps 743 mmHg 70%
    18:00 +23°C° 0 mm 2 mps 743 mmHg 74%
    19:00 +21°C° 0 mm 2 mps 743 mmHg 79%
    20:00 +19°C° 0 mm 2 mps 743 mmHg 83%
    21:00 +19°C° 0 mm 2 mps 743 mmHg 84%
    22:00 +18°C° 0 mm 2 mps 743 mmHg 85%
    23:00 +17°C° 0 mm 2 mps 743 mmHg 87%

    Tomorrow, 8 June, Monday

    Time Temperature Precipitation Wind Pressure Humidity
    00:00 +17°C° 0 mm 2 mps 743 mmHg 89%
    01:00 +17°C° 0 mm 2 mps 743 mmHg 91%
    02:00 +17°C° 0 mm 3 mps 743 mmHg 93%
    03:00 +17°C° 0 mm 2 mps 743 mmHg 93%
    04:00 +17°C° 0 mm 2 mps 743 mmHg 93%
    05:00 +18°C° 0 mm 2 mps 743 mmHg 94%
    06:00 +19°C° 0 mm 3 mps 743 mmHg 90%
    07:00 +21°C° 0 mm 3 mps 743 mmHg 85%
    08:00 +24°C° 0 mm 3 mps 743 mmHg 81%
    09:00 +25°C° 0 mm 3 mps 743 mmHg 77%
    10:00 +26°C° 0 mm 4 mps 743 mmHg 73%
    11:00 +27°C° 0 mm 4 mps 743 mmHg 69%
    12:00 +27°C° 0 mm 4 mps 743 mmHg 67%
    13:00 +28°C° 0 mm 4 mps 743 mmHg 65%
    14:00 +28°C° 0 mm 4 mps 743 mmHg 64%
    15:00 +28°C° 0 mm 3 mps 743 mmHg 66%
    16:00 +27°C° 0 mm 3 mps 743 mmHg 68%
    17:00 +27°C° 0 mm 2 mps 742 mmHg 71%
    18:00 +25°C° 0 mm 2 mps 742 mmHg 76%
    19:00 +24°C° 0 mm 2 mps 742 mmHg 81%
    20:00 +21°C° 0 mm 2 mps 742 mmHg 85%
    21:00 +20°C° 0 mm 2 mps 742 mmHg 87%
    22:00 +19°C° 0 mm 2 mps 743 mmHg 88%
    23:00 +20°C° 0 mm 1 mps 743 mmHg 89%

    Day after tomorrow, 9 June, Tuesday

    Time Temperature Precipitation Wind Pressure Humidity
    00:00 +18°C° 0 mm 2 mps 743 mmHg 90%
    01:00 +18°C° 0 mm 2 mps 743 mmHg 91%
    02:00 +18°C° 0 mm 2 mps 743 mmHg 92%
    03:00 +18°C° 0 mm 2 mps 743 mmHg 92%
    04:00 +18°C° 0 mm 2 mps 743 mmHg 92%
    05:00 +19°C° 0 mm 2 mps 743 mmHg 93%
    06:00 +20°C° 0 mm 2 mps 743 mmHg 88%
    07:00 +23°C° 0 mm 2 mps 743 mmHg 83%
    08:00 +25°C° 0 mm 2 mps 743 mmHg 78%
    09:00 +25°C° 0.1 mm 2 mps 743 mmHg 75%
    10:00 +26°C° 0.1 mm 2 mps 743 mmHg 71%
    11:00 +27°C° 0.1 mm 3 mps 743 mmHg 68%
    12:00 +28°C° 0.3 mm 3 mps 743 mmHg 66%
    13:00 +28°C° 0.3 mm 3 mps 743 mmHg 65%
    14:00 +28°C° 0.3 mm 3 mps 743 mmHg 64%
    15:00 +28°C° 0.2 mm 2 mps 743 mmHg 66%
    16:00 +28°C° 0.2 mm 2 mps 743 mmHg 68%
    17:00 +28°C° 0.2 mm 1 mps 743 mmHg 70%
    18:00 +26°C° 0.1 mm 1 mps 743 mmHg 75%
    19:00 +24°C° 0.1 mm 1 mps 743 mmHg 80%
    20:00 +23°C° 0.1 mm 1 mps 743 mmHg 85%
    21:00 +22°C° 0 mm 1 mps 743 mmHg 87%
    22:00 +21°C° 0 mm 1 mps 743 mmHg 88%
    23:00 +20°C° 0 mm 1 mps 743 mmHg 90%

    10 June, Wednesday

    Time Temperature Precipitation Wind Pressure Humidity
    00:00 +20°C° 0 mm 1 mps 743 mmHg 91%
    01:00 +20°C° 0 mm 1 mps 743 mmHg 92%
    02:00 +19°C° 0 mm 1 mps 743 mmHg 92%
    03:00 +20°C° 0 mm 1 mps 743 mmHg 93%
    04:00 +20°C° 0 mm 1 mps 743 mmHg 93%
    05:00 +20°C° 0 mm 1 mps 743 mmHg 93%
    06:00 +22°C° 0 mm 1 mps 743 mmHg 88%
    07:00 +24°C° 0 mm 1 mps 743 mmHg 83%
    08:00 +25°C° 0 mm 1 mps 743 mmHg 78%
    09:00 +26°C° 0.1 mm 1 mps 743 mmHg 73%
    10:00 +27°C° 0.1 mm 1 mps 743 mmHg 68%
    11:00 +28°C° 0.1 mm 1 mps 743 mmHg 64%
    12:00 +28°C° 0.2 mm 2 mps 743 mmHg 65%
    13:00 +28°C° 0.2 mm 2 mps 743 mmHg 66%
    14:00 +28°C° 0.2 mm 2 mps 743 mmHg 67%
    15:00 +28°C° 0.3 mm 2 mps 742 mmHg 68%
    16:00 +28°C° 0.3 mm 2 mps 742 mmHg 70%
    17:00 +28°C° 0.3 mm 2 mps 742 mmHg 72%
    18:00 +26°C° 0.6 mm 2 mps 742 mmHg 78%
    19:00 +24°C° 0.6 mm 2 mps 742 mmHg 83%
    20:00 +23°C° 0.6 mm 2 mps 742 mmHg 88%
    21:00 +21°C° 0 mm 2 mps 742 mmHg 90%
    22:00 +20°C° 0 mm 2 mps 742 mmHg 91%
    23:00 +19°C° 0 mm 2 mps 742 mmHg 93%

    11 June, Thursday

    Time Temperature Precipitation Wind Pressure Humidity
    00:00 +19°C° 0 mm 2 mps 742 mmHg 93%
    01:00 +19°C° 0 mm 1 mps 742 mmHg 94%
    02:00 +19°C° 0 mm 1 mps 742 mmHg 94%
    03:00 +19°C° 0 mm 1 mps 742 mmHg 94%
    04:00 +19°C° 0 mm 2 mps 742 mmHg 94%
    05:00 +19°C° 0 mm 2 mps 742 mmHg 94%
    06:00 +20°C° 0 mm 2 mps 742 mmHg 90%
    07:00 +23°C° 0 mm 2 mps 742 mmHg 86%
    08:00 +24°C° 0 mm 2 mps 743 mmHg 82%
    09:00 +26°C° 0.3 mm 2 mps 743 mmHg 76%
    10:00 +27°C° 0.3 mm 2 mps 742 mmHg 71%
    11:00 +28°C° 0.3 mm 2 mps 742 mmHg 66%
    12:00 +28°C° 0.4 mm 2 mps 742 mmHg 65%
    13:00 +28°C° 0.4 mm 2 mps 742 mmHg 63%
    14:00 +29°C° 0.4 mm 2 mps 742 mmHg 62%
    15:00 +28°C° 0.3 mm 2 mps 741 mmHg 66%
    16:00 +28°C° 0.3 mm 2 mps 741 mmHg 69%
    17:00 +28°C° 0.3 mm 2 mps 741 mmHg 73%
    18:00 +26°C° 0.1 mm 2 mps 741 mmHg 78%
    19:00 +24°C° 0.1 mm 2 mps 741 mmHg 83%
    20:00 +23°C° 0.1 mm 2 mps 741 mmHg 88%
    21:00 +21°C° 0 mm 2 mps 741 mmHg 90%
    22:00 +20°C° 0 mm 2 mps 741 mmHg 92%
    23:00 +19°C° 0 mm 2 mps 741 mmHg 94%

    12 June, Friday

    Time Temperature Precipitation Wind Pressure Humidity
    00:00 +19°C° 0 mm 2 mps 741 mmHg 94%
    01:00 +19°C° 0 mm 2 mps 741 mmHg 95%
    02:00 +18°C° 0 mm 2 mps 741 mmHg 95%
    03:00 +18°C° 0 mm 2 mps 741 mmHg 95%
    04:00 +19°C° 0 mm 2 mps 741 mmHg 95%
    05:00 +19°C° 0 mm 2 mps 741 mmHg 95%
    06:00 +20°C° 0.1 mm 2 mps 741 mmHg 91%
    07:00 +23°C° 0.1 mm 2 mps 741 mmHg 88%
    08:00 +24°C° 0.1 mm 2 mps 741 mmHg 84%
    09:00 +25°C° 0.4 mm 2 mps 741 mmHg 80%
    10:00 +26°C° 0.4 mm 3 mps 741 mmHg 75%
    11:00 +27°C° 0.4 mm 3 mps 741 mmHg 71%
    12:00 +28°C° 0.2 mm 3 mps 741 mmHg 69%
    13:00 +28°C° 0.2 mm 3 mps 741 mmHg 68%
    14:00 +28°C° 0.2 mm 3 mps 740 mmHg 66%
    15:00 +28°C° 0.3 mm 3 mps 740 mmHg 70%
    16:00 +28°C° 0.3 mm 2 mps 740 mmHg 74%
    17:00 +27°C° 0.3 mm 2 mps 740 mmHg 78%
    18:00 +26°C° 0.1 mm 2 mps 740 mmHg 81%
    19:00 +25°C° 0.1 mm 2 mps 740 mmHg 85%
    20:00 +23°C° 0.1 mm 2 mps 740 mmHg 88%
    21:00 +21°C° 0 mm 2 mps 740 mmHg 90%
    22:00 +21°C° 0 mm 2 mps 740 mmHg 92%
    23:00 +20°C° 0 mm 3 mps 740 mmHg 94%
    Show more